| time (UTC) | temp C | wind direction | speed KPH | gust KPH | rain 1hr cm | rain 24hr cm | rain mn cm | humidity % | barometer mb |
| 20260504024234 | 7 | 155 | 1.6 | 1.6 | 0.00 | 0.00 | 0.00 | 66 | 1014.6 |
| 20260504023731 | 7 | 112 | 0.0 | 0.0 | 0.00 | 0.00 | 0.00 | 60 | 1014.8 |
| 20260504023227 | 7 | 112 | 0.0 | 0.0 | 0.00 | 0.00 | 0.00 | 60 | 1014.9 |
| 20260504022723 | 7 | 115 | 1.6 | 1.6 | 0.00 | 0.00 | 0.00 | 60 | 1014.8 |
| 20260504022220 | 7 | 117 | 0.0 | 0.0 | 0.00 | 0.00 | 0.00 | 60 | 1014.9 |
| 20260504021718 | 7 | 122 | 0.0 | 0.0 | 0.00 | 0.00 | 0.00 | 59 | 1014.7 |
| 20260504021215 | 7 | 114 | 0.0 | 0.0 | 0.00 | 0.00 | 0.00 | 58 | 1014.6 |
| 20260504020711 | 7 | 114 | 0.0 | 0.0 | 0.00 | 0.00 | 0.00 | 58 | 1014.4 |
| 20260504020207 | 7 | 113 | 0.0 | 0.0 | 0.00 | 0.00 | 0.00 | 59 | 1014.5 |
| 20260504015704 | 7 | 113 | 0.0 | 0.0 | 0.00 | 0.00 | 0.00 | 57 | 1014.6 |
| 20260504015200 | 8 | 114 | 0.0 | 0.0 | 0.00 | 0.00 | 0.00 | 54 | 1014.4 |
| 20260504014655 | 8 | 112 | 0.0 | 0.0 | 0.00 | 0.00 | 0.00 | 52 | 1014.5 |
| 20260504014153 | 8 | 116 | 0.0 | 0.0 | 0.00 | 0.00 | 0.00 | 54 | 1014.5 |
| 20260504013651 | 8 | 109 | 0.0 | 0.0 | 0.00 | 0.00 | 0.00 | 56 | 1014.4 |
| 20260504013148 | 8 | 136 | 0.0 | 0.0 | 0.00 | 0.00 | 0.00 | 55 | 1014.4 |
| 20260504012645 | 8 | 131 | 0.0 | 0.0 | 0.00 | 0.00 | 0.00 | 55 | 1014.2 |
| 20260504012143 | 8 | 129 | 0.0 | 0.0 | 0.00 | 0.00 | 0.00 | 53 | 1014.1 |
| 20260504011640 | 9 | 126 | 0.0 | 0.0 | 0.00 | 0.00 | 0.00 | 52 | 1014.1 |
| 20260504011136 | 9 | 135 | 1.6 | 1.6 | 0.00 | 0.00 | 0.00 | 51 | 1013.9 |
| 20260504010631 | 9 | 138 | 0.0 | 0.0 | 0.00 | 0.00 | 0.00 | 51 | 1013.9 |
| 20260504010128 | 9 | 94 | 1.6 | 3.2 | 0.00 | 0.00 | 0.00 | 52 | 1013.8 |
| 20260504005625 | 9 | 115 | 0.0 | 0.0 | 0.00 | 0.00 | 0.00 | 52 | 1013.8 |
| 20260504005121 | 10 | 115 | 0.0 | 0.0 | 0.00 | 0.00 | 0.00 | 51 | 1013.7 |
| 20260504004621 | 10 | 116 | 0.0 | 0.0 | 0.00 | 0.00 | 0.00 | 50 | 1014.1 |
| 20260504004117 | 10 | 123 | 1.6 | 1.6 | 0.00 | 0.00 | 0.00 | 48 | 1013.6 |
| 20260504003613 | 10 | 116 | 0.0 | 0.0 | 0.00 | 0.00 | 0.00 | 48 | 1013.7 |
| 20260504003109 | 11 | 115 | 0.0 | 0.0 | 0.00 | 0.00 | 0.00 | 46 | 1013.7 |
| 20260504002606 | 11 | 117 | 0.0 | 0.0 | 0.00 | 0.00 | 0.00 | 44 | 1013.7 |
| 20260504002104 | 11 | 115 | 0.0 | 0.0 | 0.00 | 0.00 | 0.00 | 44 | 1013.7 |
| 20260504001601 | 12 | 116 | 0.0 | 0.0 | 0.00 | 0.00 | 0.00 | 43 | 1013.8 |
| 20260504001057 | 13 | 113 | 0.0 | 0.0 | 0.00 | 0.00 | 0.00 | 38 | 1014.1 |
| 20260504000554 | 13 | 108 | 0.0 | 0.0 | 0.00 | 0.00 | 0.00 | 34 | 1013.8 |
| 20260504000052 | 13 | 103 | 0.0 | 0.0 | 0.00 | 0.00 | 0.00 | 34 | 1013.6 |
| 20260503235550 | 13 | 106 | 0.0 | 0.0 | 0.00 | 0.00 | 0.00 | 34 | 1013.6 |
| 20260503235046 | 14 | 77 | 1.6 | 1.6 | 0.00 | 0.00 | 0.00 | 35 | 1013.5 |
| 20260503234544 | 15 | 17 | 1.6 | 1.6 | 0.00 | 0.00 | 0.00 | 33 | 1013.7 |
| 20260503234043 | 15 | 100 | 1.6 | 1.6 | 0.00 | 0.00 | 0.00 | 33 | 1013.6 |
| 20260503233538 | 15 | 93 | 1.6 | 1.6 | 0.00 | 0.00 | 0.00 | 33 | 1013.5 |
| 20260503233034 | 15 | 99 | 1.6 | 1.6 | 0.00 | 0.00 | 0.00 | 34 | 1013.6 |
| 20260503232532 | 15 | 349 | 3.2 | 3.2 | 0.00 | 0.00 | 0.00 | 32 | 1013.6 |
| 20260503232029 | 15 | 124 | 1.6 | 1.6 | 0.00 | 0.00 | 0.00 | 33 | 1013.7 |
| 20260503231527 | 15 | 105 | 1.6 | 1.6 | 0.00 | 0.00 | 0.00 | 30 | 1013.4 |
| 20260503231023 | 15 | 329 | 3.2 | 3.2 | 0.00 | 0.00 | 0.00 | 31 | 1013.5 |
| 20260503230520 | 16 | 8 | 6.4 | 8.0 | 0.00 | 0.00 | 0.00 | 29 | 1013.3 |
| 20260503230018 | 16 | 351 | 4.8 | 4.8 | 0.00 | 0.00 | 0.00 | 29 | 1013.5 |
| 20260503225514 | 16 | 93 | 1.6 | 3.2 | 0.00 | 0.00 | 0.00 | 30 | 1013.4 |
| 20260503225009 | 16 | 338 | 6.4 | 8.0 | 0.00 | 0.00 | 0.00 | 29 | 1013.1 |
| 20260503224507 | 16 | 340 | 6.4 | 8.0 | 0.00 | 0.00 | 0.00 | 28 | 1013.4 |
| 20260503224005 | 16 | 342 | 4.8 | 8.0 | 0.00 | 0.00 | 0.00 | 27 | 1013.4 |
| 20260503223503 | 16 | 336 | 8.0 | 9.7 | 0.00 | 0.00 | 0.00 | 27 | 1013.5 |
| 20260503222958 | 16 | 154 | 1.6 | 1.6 | 0.00 | 0.00 | 0.00 | 31 | 1013.2 |
| 20260503222457 | 16 | 312 | 3.2 | 3.2 | 0.00 | 0.00 | 0.00 | 28 | 1013.2 |
| 20260503221955 | 17 | 109 | 4.8 | 4.8 | 0.00 | 0.00 | 0.00 | 26 | 1013.1 |
| 20260503221453 | 17 | 131 | 1.6 | 1.6 | 0.00 | 0.00 | 0.00 | 26 | 1013.3 |
| 20260503220949 | 17 | 163 | 1.6 | 3.2 | 0.00 | 0.00 | 0.00 | 24 | 1013.4 |
| 20260503220445 | 18 | 217 | 4.8 | 4.8 | 0.00 | 0.00 | 0.00 | 26 | 1013.4 |
| 20260503215942 | 17 | 229 | 1.6 | 3.2 | 0.00 | 0.00 | 0.00 | 29 | 1013.5 |
| 20260503215439 | 18 | 156 | 0.0 | 0.0 | 0.00 | 0.00 | 0.00 | 24 | 1013.3 |
| 20260503214937 | 17 | 211 | 1.6 | 1.6 | 0.00 | 0.00 | 0.00 | 25 | 1013.4 |
| 20260503214434 | 17 | 196 | 9.7 | 11.3 | 0.00 | 0.00 | 0.00 | 24 | 1013.4 |
| 20260503213931 | 17 | 110 | 1.6 | 1.6 | 0.00 | 0.00 | 0.00 | 25 | 1013.5 |
| 20260503213430 | 17 | 331 | 1.6 | 3.2 | 0.00 | 0.00 | 0.00 | 26 | 1013.5 |
| 20260503212925 | 17 | 172 | 3.2 | 3.2 | 0.00 | 0.00 | 0.00 | 25 | 1013.6 |
| 20260503212423 | 17 | 187 | 8.0 | 11.3 | 0.00 | 0.00 | 0.00 | 25 | 1013.5 |
| 20260503211920 | 17 | 163 | 1.6 | 1.6 | 0.00 | 0.00 | 0.00 | 24 | 1013.5 |
| 20260503211417 | 17 | 195 | 3.2 | 3.2 | 0.00 | 0.00 | 0.00 | 26 | 1013.8 |
| 20260503210912 | 16 | 332 | 8.0 | 11.3 | 0.00 | 0.00 | 0.00 | 30 | 1013.7 |
| 20260503210410 | 16 | 335 | 8.0 | 11.3 | 0.00 | 0.00 | 0.00 | 30 | 1013.6 |
| 20260503205904 | 17 | 302 | 8.0 | 9.7 | 0.00 | 0.00 | 0.00 | 28 | 1013.7 |
| 20260503205402 | 16 | 17 | 1.6 | 3.2 | 0.00 | 0.00 | 0.00 | 26 | 1013.7 |
| 20260503204858 | 16 | 307 | 4.8 | 8.0 | 0.00 | 0.00 | 0.00 | 28 | 1013.7 |
| 20260503204355 | 16 | 166 | 1.6 | 3.2 | 0.00 | 0.00 | 0.00 | 27 | 1013.7 |
| 20260503203852 | 16 | 197 | 11.3 | 14.5 | 0.00 | 0.00 | 0.00 | 28 | 1013.9 |
| 20260503203350 | 16 | 203 | 11.3 | 14.5 | 0.00 | 0.00 | 0.00 | 30 | 1013.9 |
| 20260503202846 | 16 | 343 | 3.2 | 3.2 | 0.00 | 0.00 | 0.00 | 30 | 1013.9 |
| 20260503202345 | 16 | 164 | 4.8 | 4.8 | 0.00 | 0.00 | 0.00 | 27 | 1014.1 |
| 20260503201843 | 16 | 337 | 6.4 | 9.7 | 0.00 | 0.00 | 0.00 | 29 | 1014.1 |
| 20260503201339 | 16 | 130 | 1.6 | 3.2 | 0.00 | 0.00 | 0.00 | 31 | 1014.3 |
| 20260503200837 | 16 | 244 | 4.8 | 4.8 | 0.00 | 0.00 | 0.00 | 33 | 1014.2 |
| 20260503200332 | 16 | 179 | 6.4 | 8.0 | 0.00 | 0.00 | 0.00 | 28 | 1014.4 |
| 20260503195830 | 16 | 111 | 3.2 | 3.2 | 0.00 | 0.00 | 0.00 | 28 | 1014.4 |
| 20260503195326 | 15 | 291 | 3.2 | 4.8 | 0.00 | 0.00 | 0.00 | 30 | 1014.5 |
| 20260503194824 | 15 | 328 | 4.8 | 4.8 | 0.00 | 0.00 | 0.00 | 31 | 1014.4 |
| 20260503194319 | 15 | 199 | 6.4 | 9.7 | 0.00 | 0.00 | 0.00 | 30 | 1014.7 |
| 20260503193816 | 15 | 246 | 6.4 | 9.7 | 0.00 | 0.00 | 0.00 | 30 | 1014.6 |
| 20260503193312 | 15 | 341 | 4.8 | 4.8 | 0.00 | 0.00 | 0.00 | 34 | 1014.7 |
| 20260503192808 | 15 | 333 | 8.0 | 11.3 | 0.00 | 0.00 | 0.00 | 32 | 1014.7 |
| 20260503192305 | 15 | 165 | 8.0 | 16.1 | 0.00 | 0.00 | 0.00 | 32 | 1014.9 |
| 20260503191800 | 14 | 323 | 8.0 | 9.7 | 0.00 | 0.00 | 0.00 | 33 | 1014.9 |
| 20260503191257 | 14 | 340 | 12.9 | 14.5 | 0.00 | 0.00 | 0.00 | 39 | 1014.8 |
| 20260503190754 | 15 | 328 | 12.9 | 16.1 | 0.00 | 0.00 | 0.00 | 32 | 1015.2 |
| 20260503190250 | 15 | 314 | 8.0 | 11.3 | 0.00 | 0.00 | 0.00 | 37 | 1015.0 |
| 20260503185748 | 15 | 323 | 6.4 | 9.7 | 0.00 | 0.00 | 0.00 | 35 | 1015.5 |
| 20260503185243 | 14 | 191 | 11.3 | 12.9 | 0.00 | 0.00 | 0.00 | 31 | 1015.5 |
| 20260503184738 | 14 | 326 | 11.3 | 14.5 | 0.00 | 0.00 | 0.00 | 36 | 1015.3 |
| 20260503184235 | 15 | 294 | 9.7 | 11.3 | 0.00 | 0.00 | 0.00 | 34 | 1015.6 |
| 20260503183731 | 14 | 348 | 9.7 | 12.9 | 0.00 | 0.00 | 0.00 | 35 | 1015.5 |
| 20260503183229 | 15 | 355 | 9.7 | 12.9 | 0.00 | 0.00 | 0.00 | 33 | 1015.7 |
| 20260503182726 | 14 | 159 | 0.0 | 0.0 | 0.00 | 0.00 | 0.00 | 34 | 1015.7 |
| 20260503182225 | 13 | 225 | 6.4 | 9.7 | 0.00 | 0.00 | 0.00 | 36 | 1015.7 |
| 20260503181721 | 13 | 38 | 6.4 | 9.7 | 0.00 | 0.00 | 0.00 | 38 | 1015.7 |
| 20260503181218 | 13 | 356 | 8.0 | 11.3 | 0.00 | 0.00 | 0.00 | 35 | 1015.8 |
| 20260503180714 | 14 | 93 | 0.0 | 1.6 | 0.00 | 0.00 | 0.00 | 36 | 1015.9 |
| 20260503180213 | 14 | 192 | 6.4 | 9.7 | 0.00 | 0.00 | 0.00 | 33 | 1015.6 |
| 20260503175710 | 13 | 224 | 9.7 | 11.3 | 0.00 | 0.00 | 0.00 | 40 | 1016.0 |
| 20260503175208 | 13 | 63 | 8.0 | 14.5 | 0.00 | 0.00 | 0.00 | 35 | 1016.0 |
| 20260503174703 | 13 | 187 | 3.2 | 4.8 | 0.00 | 0.00 | 0.00 | 34 | 1015.9 |
| 20260503174201 | 13 | 305 | 6.4 | 9.7 | 0.00 | 0.00 | 0.00 | 39 | 1015.8 |
| 20260503173656 | 13 | 265 | 9.7 | 12.9 | 0.00 | 0.00 | 0.00 | 39 | 1015.9 |
| 20260503173152 | 13 | 320 | 9.7 | 12.9 | 0.00 | 0.00 | 0.00 | 35 | 1016.1 |
| 20260503172649 | 12 | 142 | 1.6 | 1.6 | 0.00 | 0.00 | 0.00 | 37 | 1016.1 |
| 20260503172146 | 12 | 331 | 8.0 | 9.7 | 0.00 | 0.00 | 0.00 | 39 | 1016.0 |
| 20260503171642 | 12 | 232 | 9.7 | 11.3 | 0.00 | 0.00 | 0.00 | 38 | 1016.2 |
| 20260503171140 | 12 | 321 | 11.3 | 12.9 | 0.00 | 0.00 | 0.00 | 37 | 1016.2 |
| 20260503170637 | 12 | 348 | 4.8 | 8.0 | 0.00 | 0.00 | 0.00 | 37 | 1016.5 |
| 20260503170134 | 12 | 349 | 19.3 | 22.5 | 0.00 | 0.00 | 0.00 | 37 | 1016.3 |
| 20260503150525 | 10 | 341 | 11.3 | 12.9 | 0.00 | 0.00 | 0.00 | 45 | 1017.5 |
| 20260503131418 | 7 | 340 | 9.7 | 12.9 | 0.00 | 0.00 | 0.00 | 53 | 1017.5 |
| 20260503130915 | 7 | 346 | 14.5 | 16.1 | 0.00 | 0.00 | 0.00 | 53 | 1017.3 |
| 20260503130413 | 7 | 310 | 8.0 | 11.3 | 0.00 | 0.00 | 0.00 | 54 | 1017.3 |
| 20260503110817 | 4 | 313 | 3.2 | 3.2 | 0.00 | 0.00 | 0.00 | 68 | 1016.6 |
| 20260503110314 | 3 | 20 | 3.2 | 3.2 | 0.00 | 0.00 | 0.00 | 68 | 1016.5 |
| 20260503100240 | 5 | 351 | 6.4 | 9.7 | 0.00 | 0.00 | 0.00 | 65 | 1015.3 |
| 20260503090159 | 5 | 336 | 3.2 | 4.8 | 0.00 | 0.00 | 0.00 | 66 | 1015.0 |
| 20260503081636 | 5 | 358 | 6.4 | 8.0 | 0.00 | 0.00 | 0.00 | 67 | 1014.5 |
| 20260503081132 | 5 | 350 | 4.8 | 8.0 | 0.00 | 0.00 | 0.00 | 68 | 1014.6 |
| 20260503080628 | 5 | 338 | 8.0 | 9.7 | 0.00 | 0.00 | 0.00 | 67 | 1014.5 |
| 20260503080125 | 5 | 353 | 6.4 | 8.0 | 0.00 | 0.00 | 0.00 | 69 | 1014.6 |
| 20260503072602 | 5 | 339 | 11.3 | 11.3 | 0.00 | 0.00 | 0.00 | 69 | 1014.4 |
| 20260503072059 | 5 | 339 | 11.3 | 12.9 | 0.00 | 0.00 | 0.00 | 69 | 1014.2 |
| 20260503071556 | 5 | 343 | 9.7 | 11.3 | 0.00 | 0.00 | 0.00 | 68 | 1013.9 |
| 20260503071053 | 5 | 348 | 9.7 | 12.9 | 0.00 | 0.00 | 0.00 | 68 | 1014.1 |
| 20260503070549 | 6 | 321 | 8.0 | 9.7 | 0.00 | 0.00 | 0.00 | 67 | 1014.1 |
| 20260503055008 | 5 | 341 | 1.6 | 1.6 | 0.00 | 0.00 | 0.00 | 69 | 1013.9 |
| 20260503054504 | 5 | 322 | 6.4 | 8.0 | 0.00 | 0.00 | 0.00 | 69 | 1013.8 |
| 20260503054002 | 5 | 348 | 8.0 | 8.0 | 0.00 | 0.00 | 0.00 | 69 | 1013.8 |
| 20260503053500 | 5 | 341 | 6.4 | 8.0 | 0.00 | 0.00 | 0.00 | 69 | 1013.8 |
| 20260503052956 | 5 | 352 | 4.8 | 4.8 | 0.00 | 0.00 | 0.00 | 68 | 1013.9 |
| 20260503052454 | 5 | 353 | 4.8 | 4.8 | 0.00 | 0.00 | 0.00 | 67 | 1013.9 |
| 20260503051950 | 6 | 334 | 4.8 | 4.8 | 0.00 | 0.00 | 0.00 | 66 | 1013.7 |
| 20260503051446 | 6 | 339 | 4.8 | 4.8 | 0.00 | 0.00 | 0.00 | 65 | 1013.8 |
| 20260503050943 | 6 | 310 | 8.0 | 8.0 | 0.00 | 0.00 | 0.00 | 65 | 1013.8 |
| 20260503050439 | 6 | 353 | 4.8 | 4.8 | 0.00 | 0.00 | 0.00 | 64 | 1013.8 |
| 20260503045937 | 6 | 338 | 6.4 | 8.0 | 0.00 | 0.00 | 0.00 | 65 | 1013.7 |
| 20260503045434 | 6 | 316 | 8.0 | 9.7 | 0.00 | 0.00 | 0.00 | 65 | 1013.9 |
| 20260503044931 | 6 | 334 | 4.8 | 4.8 | 0.00 | 0.00 | 0.00 | 64 | 1014.1 |
| 20260503044427 | 6 | 337 | 4.8 | 4.8 | 0.00 | 0.00 | 0.00 | 63 | 1013.8 |
| 20260503043925 | 7 | 318 | 8.0 | 9.7 | 0.00 | 0.00 | 0.00 | 62 | 1014.1 |
| 20260503043421 | 7 | 337 | 8.0 | 9.7 | 0.00 | 0.00 | 0.00 | 61 | 1013.9 |
| 20260503042918 | 7 | 344 | 6.4 | 8.0 | 0.00 | 0.00 | 0.00 | 61 | 1013.9 |
| 20260503042415 | 7 | 347 | 4.8 | 4.8 | 0.00 | 0.00 | 0.00 | 62 | 1013.8 |
| 20260503041911 | 7 | 9 | 3.2 | 3.2 | 0.00 | 0.00 | 0.00 | 62 | 1013.8 |
| 20260503041408 | 7 | 315 | 4.8 | 4.8 | 0.00 | 0.00 | 0.00 | 61 | 1013.8 |
| 20260503040905 | 7 | 355 | 6.4 | 9.7 | 0.00 | 0.00 | 0.00 | 60 | 1013.8 |
| 20260503040403 | 7 | 333 | 3.2 | 3.2 | 0.00 | 0.00 | 0.00 | 60 | 1013.9 |
| 20260503035859 | 7 | 339 | 4.8 | 8.0 | 0.00 | 0.00 | 0.00 | 60 | 1013.9 |
| 20260503035356 | 7 | 296 | 8.0 | 11.3 | 0.00 | 0.00 | 0.00 | 59 | 1013.7 |
| 20260503034854 | 7 | 335 | 8.0 | 9.7 | 0.00 | 0.00 | 0.00 | 58 | 1013.8 |
| 20260503034351 | 7 | 359 | 6.4 | 8.0 | 0.00 | 0.00 | 0.00 | 58 | 1013.6 |
| 20260503033848 | 7 | 31 | 1.6 | 3.2 | 0.00 | 0.00 | 0.00 | 58 | 1013.8 |
| 20260503033346 | 8 | 312 | 6.4 | 8.0 | 0.00 | 0.00 | 0.00 | 57 | 1013.4 |
| 20260503032843 | 8 | 340 | 6.4 | 8.0 | 0.00 | 0.00 | 0.00 | 56 | 1013.6 |
| 20260503032342 | 8 | 1 | 9.7 | 11.3 | 0.00 | 0.00 | 0.00 | 56 | 1013.6 |
| 20260503031839 | 8 | 306 | 8.0 | 11.3 | 0.00 | 0.00 | 0.00 | 55 | 1013.4 |
| 20260503031337 | 8 | 349 | 8.0 | 9.7 | 0.00 | 0.00 | 0.00 | 55 | 1013.4 |
| 20260503030833 | 8 | 337 | 12.9 | 14.5 | 0.00 | 0.00 | 0.00 | 54 | 1013.5 |
| 20260503030330 | 8 | 9 | 8.0 | 11.3 | 0.00 | 0.00 | 0.00 | 53 | 1013.4 |
| 20260503025826 | 8 | 343 | 14.5 | 16.1 | 0.00 | 0.00 | 0.00 | 52 | 1013.4 |
| 20260503025324 | 8 | 350 | 12.9 | 16.1 | 0.00 | 0.00 | 0.00 | 52 | 1013.6 |
| 20260503024821 | 8 | 0 | 4.8 | 4.8 | 0.00 | 0.00 | 0.00 | 52 | 1013.2 |